Stations météo

Publicité
Perpignan, France (7747): Température de l'air & dewpoint: 04.12.2019 21:00:00 - 10.12.2019 21:00:00 (CET)Perpignan, France (7747): Température de l'air 5cm: 04.12.2019 21:00:00 - 10.12.2019 21:00:00 (CET)Perpignan, France (7747): Température de l'air -20cm & Température de l'air -100cm: 04.12.2019 21:00:00 - 10.12.2019 21:00:00 (CET)Perpignan, France (7747): Vitesse du vent & gusts: 04.12.2019 21:00:00 - 10.12.2019 21:00:00 (CET)Perpignan, France (7747): Direction du vent: 04.12.2019 21:00:00 - 10.12.2019 21:00:00 (CET)Perpignan, France (7747): reduced air pressure: 04.12.2019 21:00:00 - 10.12.2019 21:00:00 (CET)Perpignan, France (7747): visibility: 04.12.2019 21:00:00 - 10.12.2019 21:00:00 (CET)Perpignan, France (7747): Quantités de précipitations: 04.12.2019 21:00:00 - 10.12.2019 21:00:00 (CET)
Date & Time tt [°C] td [°C] tt 5cm [°C] tt -20cm [°C] tt -100cm [°C] ff [km/h] ff [knt] fx [km/h] fx [knt] dd ppp [hPa] vv [km] rr [mm]
10.12.2019 21:00:00 - - - - - - - - - - - - -
10.12.2019 20:00:00 9,8 2,2 3,4 11,0 13,9 11 6 19 11 W 1022,5 60 0,0
10.12.2019 19:00:00 8,9 0,6 1,4 11,0 13,9 7 4 15 8 SSW 1023,0 60 0,0
10.12.2019 18:00:00 10,8 -0,7 5,6 11,0 13,9 11 6 32 18 SW 1022,5 60 0,0
10.12.2019 17:00:00 13,8 -3,1 11,5 10,9 13,9 21 11 34 19 NW 1021,6 60 0,0
10.12.2019 16:00:00 13,8 0,1 14,4 10,8 13,9 17 9 42 23 NNW 1022,4 44 0,0
10.12.2019 15:00:00 13,6 1,2 14,3 10,7 13,9 29 16 50 27 WNW 1022,1 17 0,0
10.12.2019 14:00:00 13,2 1,2 14,8 10,6 14,0 26 14 63 34 NW 1023,2 46 0,0
10.12.2019 13:00:00 13,2 1,8 15,0 10,5 13,9 37 20 66 35 NNW 1024,0 47 0,0
10.12.2019 12:00:00 12,5 2,1 13,9 10,5 13,9 29 16 66 35 WNW 1025,6 20 0,0
10.12.2019 11:00:00 12,0 1,6 14,2 10,5 14,0 36 19 71 39 NW 1025,8 18 0,0
10.12.2019 10:00:00 10,7 2,0 9,9 10,5 13,9 29 16 54 29 NNW 1026,7 48 0,0
10.12.2019 09:00:00 9,8 2,2 7,6 10,6 14,0 37 20 59 32 NW 1027,4 28 0,0
10.12.2019 08:00:00 9,2 1,8 7,1 10,6 14,0 23 12 54 29 WNW 1027,5 47 0,0
10.12.2019 07:00:00 9,2 1,8 7,3 10,7 14,0 24 13 53 29 WNW 1027,2 49 0,0
10.12.2019 06:00:00 9,2 1,4 7,5 10,7 14,0 18 10 66 35 NW 1026,9 53 0,0
10.12.2019 05:00:00 9,5 1,4 8,0 10,8 14,0 25 14 76 41 NW 1025,9 52 0,0
10.12.2019 04:00:00 9,5 1,1 8,3 10,9 14,0 27 15 69 37 NW 1026,0 50 0,0
10.12.2019 03:00:00 10,1 1,7 8,8 10,9 14,0 34 18 72 39 NW 1025,0 50 0,0
10.12.2019 02:00:00 10,3 2,1 9,1 11,0 14,0 33 18 73 40 NNW 1025,3 49 0,0
10.12.2019 01:00:00 10,2 3,2 6,8 11,0 14,0 32 17 71 38 NNW 1024,5 51 0,0
10.12.2019 00:00:00 8,2 3,6 6,8 11,1 14,0 37 20 79 43 NNW 1024,7 16 0,0
09.12.2019 23:00:00 11,0 2,3 9,8 11,1 14,0 41 22 103 56 NW 1023,3 46 0,0
09.12.2019 22:00:00 11,2 2,7 8,8 11,2 14,0 47 25 89 48 NW 1022,7 42 0,0
09.12.2019 21:00:00 10,0 4,6 8,1 11,3 14,0 38 21 92 50 NW 1022,3 45 0,2
09.12.2019 20:00:00 11,2 3,5 9,0 11,4 14,0 54 29 105 57 WNW 1021,0 42 0,0
09.12.2019 19:00:00 10,7 4,2 8,4 11,4 14,0 48 26 91 49 WNW 1020,1 52 0,0
09.12.2019 18:00:00 10,3 5,3 6,9 11,5 14,0 32 17 96 52 WNW 1021,2 52 0,6
09.12.2019 17:00:00 11,1 4,8 8,1 11,5 14,0 50 27 99 54 WNW 1019,3 41 0,2
09.12.2019 16:00:00 10,9 5,4 8,4 11,5 14,0 51 27 95 52 WNW 1018,8 6 0,2
09.12.2019 15:00:00 12,0 5,8 10,1 11,4 14,0 53 28 92 50 WNW 1017,5 5 0,2
09.12.2019 14:00:00 10,3 6,6 9,5 11,4 14,1 59 32 98 53 WNW 1018,0 4,0 0,8
09.12.2019 13:00:00 13,1 5,0 15,2 11,3 14,1 56 30 98 53 W 1018,4 15 0,2
09.12.2019 12:00:00 12,9 5,8 12,4 11,3 14,0 43 23 89 48 WNW 1018,9 18 0,0
09.12.2019 11:00:00 12,1 6,4 9,2 11,3 14,0 46 25 81 44 WNW 1019,8 19 0,2
09.12.2019 10:00:00 11,4 6,3 10,9 11,3 14,1 50 27 103 56 WNW 1019,3 9 0,0
09.12.2019 09:00:00 13,9 3,9 11,5 11,4 14,1 58 32 95 51 WNW 1017,6 13 0,0
09.12.2019 08:00:00 13,1 3,7 11,4 11,4 14,1 44 24 86 47 WNW 1018,2 59 0,0
09.12.2019 07:00:00 13,1 4,0 11,3 11,4 14,0 46 25 87 47 WNW 1019,3 60 0,0
09.12.2019 06:00:00 12,9 3,8 11,0 11,5 14,1 44 24 76 41 WNW 1018,8 55 0,0
09.12.2019 05:00:00 12,5 4,0 10,7 11,5 14,1 36 20 82 44 WNW 1019,0 47 0,0
09.12.2019 04:00:00 12,5 4,7 10,4 11,6 14,1 42 23 78 42 NW 1019,0 42 0,0
09.12.2019 03:00:00 12,0 4,9 10,1 11,6 14,1 30 16 65 35 WNW 1019,2 43 0,0
09.12.2019 02:00:00 12,6 5,3 10,9 11,6 14,1 31 17 65 35 WNW 1019,2 43 0,0
09.12.2019 01:00:00 13,6 6,2 12,0 11,6 14,1 26 14 60 32 WNW 1020,0 53 0,0
09.12.2019 00:00:00 14,3 7,3 12,5 11,6 14,1 25 14 54 29 WNW 1019,7 60 0,0
08.12.2019 23:00:00 15,0 7,8 10,3 11,6 14,1 31 17 60 33 WNW 1019,4 60 0,0
08.12.2019 22:00:00 11,7 8,9 9,8 11,6 14,1 6 4 19 10 SW 1019,6 45 0,0
08.12.2019 21:00:00 10,6 8,7 9,8 11,6 14,1 13 7 18 10 SW 1019,6 15 1,2
08.12.2019 20:00:00 11,0 7,9 8,9 11,6 14,1 3 1 13 7 SW 1019,5 17 0,0
08.12.2019 19:00:00 11,4 8,1 6,0 11,6 14,1 9 5 16 9 SSW 1019,0 34 0,0
08.12.2019 18:00:00 11,3 7,0 5,5 11,6 14,1 6 3 9 5 SW 1018,7 50 0,0
08.12.2019 17:00:00 14,6 7,6 9,7 11,5 14,2 5 3 16 8 S 1019,0 47 0,0
08.12.2019 16:00:00 15,9 8,1 16,1 11,3 14,1 11 6 22 12 SSE 1019,1 60 0,0
08.12.2019 15:00:00 17,4 8,3 18,3 11,1 14,2 10 5 16 9 S 1019,2 49 0,0
08.12.2019 14:00:00 16,5 8,2 19,0 10,9 14,2 6 3 16 9 SE 1020,1 54 0,0
08.12.2019 13:00:00 16,3 7,8 20,6 10,7 14,2 12 6 21 11 S 1020,8 50 0,0
08.12.2019 12:00:00 15,6 7,4 20,8 10,6 14,2 9 5 17 9 S 1021,8 60 0,0
08.12.2019 11:00:00 14,8 7,8 14,1 10,5 14,2 8 5 13 7 W 1022,8 60 0,0
08.12.2019 10:00:00 11,0 6,3 8,0 10,5 14,2 6 4 12 7 SW 1022,6 60 0,0
08.12.2019 09:00:00 6,7 5,0 2,8 10,6 14,2 8 4 15 8 WSW 1022,8 50 0,0
08.12.2019 08:00:00 5,3 3,3 3,0 10,7 14,2 11 6 18 10 WSW 1022,6 60 0,0
08.12.2019 07:00:00 5,7 4,0 0,8 10,8 14,2 11 6 15 8 SW 1022,3 60 0,0
08.12.2019 06:00:00 5,8 3,6 2,5 10,9 14,2 11 6 17 9 SW 1022,0 60 0,0
08.12.2019 05:00:00 5,7 3,4 1,5 10,9 14,2 9 5 18 10 WSW 1022,1 53 0,0
08.12.2019 04:00:00 6,4 3,9 3,1 11,0 14,2 9 5 20 11 SW 1022,3 60 0,0
08.12.2019 03:00:00 7,0 4,3 4,7 11,1 14,2 14 8 20 11 SW 1022,5 59 0,0
08.12.2019 02:00:00 7,4 4,9 4,6 11,1 14,2 12 7 22 12 SW 1022,9 55 0,0
08.12.2019 01:00:00 7,4 5,2 4,4 11,3 14,3 16 9 23 12 WSW 1023,5 36 0,0
08.12.2019 00:00:00 7,3 5,4 2,5 11,3 14,2 7 4 11 6 WSW 1024,3 28 0,0
07.12.2019 23:00:00 7,8 5,6 2,8 11,4 14,2 5 3 16 9 SSW 1024,2 23 0,0
07.12.2019 22:00:00 9,8 6,0 4,8 11,5 14,2 6 3 20 11 NNW 1023,8 47 0,0
07.12.2019 21:00:00 11,8 7,5 3,8 11,5 14,3 16 8 27 14 WNW 1023,7 55 0,0
07.12.2019 20:00:00 9,8 7,0 5,2 11,6 14,3 6 3 21 12 SE 1023,8 40 0,0
07.12.2019 19:00:00 11,1 7,8 4,7 11,6 14,3 13 7 18 10 WNW 1023,1 44 0,0
07.12.2019 18:00:00 11,3 6,6 5,0 11,5 14,3 7 4 11 6 W 1022,6 45 0,0
07.12.2019 17:00:00 13,9 6,7 10,6 11,5 14,3 5 3 17 9 NNW 1021,9 60 0,0
07.12.2019 16:00:00 15,7 7,2 16,0 11,3 14,3 9 5 18 10 N 1021,5 58 0,0
07.12.2019 15:00:00 16,5 6,3 16,3 11,1 14,3 6 3 27 15 NNW 1021,4 56 0,0
07.12.2019 14:00:00 16,9 7,3 20,7 10,9 14,3 12 7 27 15 WNW 1021,7 60 0,0
07.12.2019 13:00:00 15,5 7,3 19,0 10,8 14,3 16 9 31 17 NW 1022,3 60 0,0
07.12.2019 12:00:00 14,7 7,0 17,5 10,7 14,3 21 11 35 19 WNW 1022,8 60 0,0
07.12.2019 11:00:00 13,6 7,1 15,6 10,7 14,3 14 7 25 14 WNW 1023,2 52 0,0
07.12.2019 10:00:00 11,9 7,2 9,0 10,8 14,3 5 3 16 8 S 1023,2 46 0,0
07.12.2019 09:00:00 9,0 5,6 4,3 10,9 14,3 6 3 20 11 WSW 1023,1 58 0,0
07.12.2019 08:00:00 7,1 4,7 1,3 10,9 14,3 9 5 16 9 WSW 1022,9 60 0,0
07.12.2019 07:00:00 6,1 3,1 1,7 11,0 14,3 5 3 14 8 WSW 1022,6 60 0,0
07.12.2019 06:00:00 7,6 4,2 2,6 11,1 14,3 6 3 15 8 W 1022,0 60 0,0
07.12.2019 05:00:00 6,3 4,0 3,3 11,2 14,3 12 6 20 11 W 1021,7 60 0,0
07.12.2019 04:00:00 6,8 4,5 3,1 11,3 14,3 14 7 22 12 WSW 1021,8 60 0,0
07.12.2019 03:00:00 8,0 5,3 1,9 11,4 14,3 11 6 14 8 W 1022,1 60 0,0
07.12.2019 02:00:00 7,2 5,0 2,7 11,5 14,3 9 5 15 8 SSW 1022,5 60 0,0
07.12.2019 01:00:00 7,1 4,7 3,3 11,6 14,3 9 5 17 9 W 1022,8 60 0,0
07.12.2019 00:00:00 7,4 5,2 2,8 11,7 14,3 10 5 13 7 WSW 1022,7 60 0,0
06.12.2019 23:00:00 6,7 4,9 2,0 11,8 14,3 7 4 14 8 SW 1022,2 56 0,0
06.12.2019 22:00:00 6,9 4,7 1,8 11,9 14,4 13 7 18 10 WSW 1022,0 49 0,0
06.12.2019 21:00:00 6,1 4,3 1,9 12,0 14,3 6 4 10 5 WSW 1022,6 36 0,0
06.12.2019 20:00:00 7,0 4,6 2,5 12,1 14,3 7 4 10 6 SW 1022,4 39 0,0
06.12.2019 19:00:00 8,4 4,8 3,1 12,2 14,4 8 4 11 6 WSW 1022,3 29 0,0
06.12.2019 18:00:00 9,9 5,1 3,9 12,2 14,3 4 2 6 4 S 1022,2 36 0,0
06.12.2019 17:00:00 12,4 4,4 7,8 12,2 14,4 5 3 11 6 ESE 1021,9 43 0,0
06.12.2019 16:00:00 14,1 5,2 14,2 12,0 14,4 8 5 15 8 ESE 1021,8 53 0,0
06.12.2019 15:00:00 15,2 5,4 16,2 11,9 14,4 9 5 16 8 ESE 1022,0 57 0,0
06.12.2019 14:00:00 15,8 5,1 19,2 11,7 14,3 4 2 14 8 ESE 1022,4 48 0,0
06.12.2019 13:00:00 15,0 5,5 19,8 11,6 14,4 6 3 13 7 ESE 1023,2 52 0,0
06.12.2019 12:00:00 14,3 5,9 16,9 11,6 14,4 7 4 12 6 SSE 1024,2 44 0,0
06.12.2019 11:00:00 12,7 6,5 17,5 11,6 14,4 5 3 9 5 SW 1025,0 51 0,0
06.12.2019 10:00:00 11,0 7,5 9,5 11,7 14,4 3 2 10 5 S 1024,8 55 0,0
06.12.2019 09:00:00 6,9 5,8 1,6 11,8 14,4 8 4 11 6 WSW 1024,2 25 0,0
06.12.2019 08:00:00 5,7 4,5 1,6 11,9 14,4 2 1 6 3 W 1023,8 47 0,0
06.12.2019 07:00:00 7,3 6,1 2,3 11,9 14,4 4 2 6 4 NNW 1023,2 60 0,0
06.12.2019 06:00:00 8,2 6,7 4,2 12,0 14,4 4 2 11 6 E 1023,2 40 0,0
06.12.2019 05:00:00 9,5 7,3 8,7 12,0 14,4 4 2 9 5 SW 1023,3 60 0,0
06.12.2019 04:00:00 9,6 7,7 8,9 12,0 14,4 3 2 7 4 SSE 1023,7 40 0,0
06.12.2019 03:00:00 9,8 7,0 8,9 12,0 14,4 4 2 5 3 W 1023,6 60 0,0
06.12.2019 02:00:00 9,8 6,7 8,5 12,0 14,4 2 1 13 7 W 1023,6 60 0,0
06.12.2019 01:00:00 9,9 6,8 7,7 12,1 14,4 6 3 9 5 W 1024,1 60 0,0
06.12.2019 00:00:00 10,0 7,1 8,2 12,1 14,4 5 3 15 8 NE 1024,4 59 0,0
05.12.2019 23:00:00 10,5 7,4 9,3 12,1 14,4 6 4 11 6 WSW 1024,3 60 0,0
05.12.2019 22:00:00 10,5 7,4 9,3 12,1 14,4 9 5 13 7 W 1024,1 60 0,0
05.12.2019 21:00:00 10,3 7,4 9,2 12,1 14,4 8 4 11 6 SW 1024,1 26 0,0
05.12.2019 20:00:00 9,8 7,7 7,9 12,1 14,4 8 4 10 6 WSW 1024,0 33 0,0
05.12.2019 19:00:00 10,3 7,4 9,1 12,1 14,4 3 2 13 7 S 1023,6 60 0,0
05.12.2019 18:00:00 10,2 6,9 8,9 12,0 14,4 8 4 15 8 WSW 1023,2 60 0,2
05.12.2019 17:00:00 10,5 6,3 9,0 12,0 14,4 9 5 18 10 W 1022,9 13 0,4
05.12.2019 16:00:00 11,4 5,7 9,5 11,9 14,4 9 5 16 9 NW 1022,9 20 0,4
05.12.2019 15:00:00 12,8 7,2 11,9 11,8 14,4 5 3 9 5 NNW 1022,3 22 0,2
05.12.2019 14:00:00 12,9 6,0 12,8 11,7 14,5 3 2 11 6 NNW 1022,2 60 0,0
05.12.2019 13:00:00 12,7 6,9 12,5 11,6 14,4 6 3 12 6 NNW 1022,2 59 0,0
05.12.2019 12:00:00 11,9 7,4 11,4 11,6 14,4 5 3 8 4 WNW 1022,7 57 0,0
05.12.2019 11:00:00 11,5 7,2 11,4 11,6 14,5 4 2 10 5 N 1022,0 48 0,0
05.12.2019 10:00:00 11,0 6,7 8,9 11,5 14,4 3 2 16 8 ESE 1021,2 60 0,0
05.12.2019 09:00:00 10,3 5,5 8,0 11,6 14,5 11 6 18 10 WNW 1020,4 60 0,0
05.12.2019 08:00:00 9,0 6,6 7,8 11,6 14,5 5 3 12 6 W 1019,7 60 0,0
05.12.2019 07:00:00 9,0 7,0 8,2 11,6 14,5 9 5 14 8 WSW 1019,0 39 0,0
05.12.2019 06:00:00 9,0 7,0 8,0 11,6 14,5 10 6 19 10 W 1018,7 45 0,0
05.12.2019 05:00:00 9,0 6,4 8,0 11,6 14,5 14 8 23 12 WNW 1018,4 59 0,2
05.12.2019 04:00:00 8,6 6,9 7,9 11,6 14,5 13 7 21 11 W 1018,4 37 0,2
05.12.2019 03:00:00 8,7 6,3 7,9 11,7 14,5 9 5 16 8 WNW 1018,3 29 0,0
05.12.2019 02:00:00 8,6 7,2 8,1 11,7 14,5 6 4 19 10 W 1017,9 49 0,2
05.12.2019 01:00:00 8,4 7,2 7,8 11,7 14,5 15 8 21 11 W 1017,6 20 0,4
05.12.2019 00:00:00 8,4 7,2 7,8 11,8 14,5 10 6 16 9 WSW 1017,7 13 2,4
04.12.2019 23:00:00 8,4 6,9 7,9 11,8 14,5 10 5 21 11 WNW 1017,3 7 2,4
04.12.2019 22:00:00 8,5 7,1 8,1 11,8 14,5 10 6 14 8 W 1017,0 7 1,4
04.12.2019 21:00:00 8,6 7,4 8,2 11,8 14,5 9 5 14 7 W 1016,4 6 1,6

tt = Température de l'air
td = dewpoint
tt 5cm = Température de l'air 5cm
tt -20cm = Température de l'air -20cm
tt -100cm = Température de l'air -100cm
ff = Vitesse du vent
fx = gusts
dd = Direction du vent
ppp = reduced air pressure
vv = visibility
rr = Quantités de précipitations

stations d'obs. à proximité